{"data":{"norad_id":64943,"epoch":"2026-05-25T02:09:21.729312Z","epoch_age_seconds":63249,"freshness":"FRESH","line1":"1 64943U 25158M   26145.08983483  .00003550  00000+0  24995-3 0  9992","line2":"2 64943  97.4535   9.0436 0002116  84.0058 276.1410 15.05658183 46854","mean_motion":15.05658183,"eccentricity":0.0002116,"inclination_deg":97.4535,"raan_deg":9.0436,"arg_perigee_deg":84.0058,"mean_anomaly_deg":276.141,"bstar":0.00024995,"rev_number":4685,"period_min":95.63923712956,"perigee_km":548.02016857342,"apogee_km":550.95193864971,"semimajor_km":6927.6230536116,"source":"CELESTRAK","updated_at":"2026-05-25T13:38:20.632105Z"}}